Weather reports worldwide

Advertisment
Maastricht, Netherlands (6380): temperature & dewpoint: 12.01.2020 14:00:00 - 18.01.2020 14:00:00 (CET)Maastricht, Netherlands (6380): temperature 5cm: 12.01.2020 14:00:00 - 18.01.2020 14:00:00 (CET)Maastricht, Netherlands (6380): wind speed & gusts: 12.01.2020 14:00:00 - 18.01.2020 14:00:00 (CET)Maastricht, Netherlands (6380): wind direction: 12.01.2020 14:00:00 - 18.01.2020 14:00:00 (CET)Maastricht, Netherlands (6380): reduced air pressure: 12.01.2020 14:00:00 - 18.01.2020 14:00:00 (CET)Maastricht, Netherlands (6380): visibility: 12.01.2020 14:00:00 - 18.01.2020 14:00:00 (CET)Maastricht, Netherlands (6380): precipitation: 12.01.2020 14:00:00 - 18.01.2020 14:00:00 (CET)
Date & Time tt [°C] td [°C] tt 5cm [°C] ff [km/h] ff [kn] fx [km/h] fx [kn] dd ppp [hPa] vv [km] rr [mm]
18.01.2020 14:00:00 7,0 3,0 6,8 15 8 - - WSW 1025,9 10 -
18.01.2020 13:00:00 5,8 2,7 6,3 15 8 25 14 WSW 1025,8 10 0,0
18.01.2020 12:00:00 4,9 2,3 5,0 16 9 29 16 WSW 1026,0 10 0,0
18.01.2020 11:00:00 4,7 2,0 4,2 22 12 29 16 SW 1025,7 10 0,0
18.01.2020 10:00:00 4,3 2,2 4,1 21 11 32 18 SW 1025,0 10 0,0
18.01.2020 09:00:00 4,2 2,4 3,9 22 12 29 16 SW 1024,4 10 0,0
18.01.2020 08:00:00 4,2 2,4 3,9 22 12 29 16 SW 1023,5 10 0,0
18.01.2020 07:00:00 4,0 2,2 3,7 22 12 29 16 SW 1023,2 10 0,0
18.01.2020 06:00:00 4,0 1,8 3,6 24 13 29 16 SW 1022,9 10 0,0
18.01.2020 05:00:00 3,8 1,5 3,1 24 13 29 16 SW 1022,7 10 0,0
18.01.2020 04:00:00 3,5 1,4 2,5 21 11 29 16 SW 1022,4 10 0,0
18.01.2020 03:00:00 3,7 1,4 2,8 24 13 29 16 SW 1022,4 10 0,0
18.01.2020 02:00:00 4,4 1,7 3,8 24 13 32 18 SW 1022,1 10 0,0
18.01.2020 01:00:00 4,5 2,3 3,4 21 11 29 16 SW 1021,6 10 0,0
18.01.2020 00:00:00 4,3 2,2 3,4 18 10 25 14 SW 1021,2 10 0,0
17.01.2020 23:00:00 5,3 2,5 4,3 21 11 29 16 SW 1020,6 10 0,0
17.01.2020 22:00:00 5,8 2,6 4,7 18 10 29 16 SW 1020,0 10 0,0
17.01.2020 21:00:00 6,0 2,7 4,8 16 9 32 18 WSW 1019,3 10 0,0
17.01.2020 20:00:00 6,7 3,5 5,6 21 11 36 19 WSW 1018,6 10 0,0
17.01.2020 19:00:00 7,5 3,8 6,5 24 13 36 19 SW 1017,7 10 0,0
17.01.2020 18:00:00 8,5 4,8 7,4 24 13 32 18 SW 1016,5 10 0,0
17.01.2020 17:00:00 8,7 6,2 7,7 22 12 32 18 SW 1015,8 10 0,0
17.01.2020 16:00:00 9,1 7,2 8,6 24 13 32 18 SW 1015,1 10 0,0
17.01.2020 15:00:00 9,0 7,5 8,7 21 11 29 16 SW 1014,6 10 0,0
17.01.2020 14:00:00 8,5 7,6 8,3 22 12 29 16 SSW 1014,7 10 0,5
17.01.2020 13:00:00 8,5 7,2 8,2 21 11 29 16 SSW 1014,9 10 0,7
17.01.2020 12:00:00 8,9 6,3 8,4 22 12 36 19 SSW 1015,2 10 0,3
17.01.2020 11:00:00 9,8 5,0 9,3 28 15 36 19 SSW 1015,2 10 0,0
17.01.2020 10:00:00 9,7 4,8 9,1 21 11 25 14 S 1015,2 10 0,0
17.01.2020 09:00:00 9,2 4,5 8,6 21 11 29 16 S 1015,4 10 0,0
17.01.2020 08:00:00 9,7 4,3 8,8 22 12 25 14 S 1015,1 10 0,0
17.01.2020 07:00:00 9,6 4,3 8,3 22 12 36 19 S 1015,2 10 0,0
17.01.2020 06:00:00 9,5 4,4 8,6 26 14 40 21 S 1015,3 10 0,0
17.01.2020 05:00:00 9,5 4,3 8,6 24 13 32 18 S 1015,7 10 0,0
17.01.2020 04:00:00 9,5 4,1 8,1 18 10 29 16 S 1016,4 10 0,0
17.01.2020 03:00:00 9,6 4,0 8,3 18 10 29 16 S 1017,2 10 0,0
17.01.2020 02:00:00 10,0 3,8 8,7 21 11 29 16 S 1017,8 10 0,0
17.01.2020 01:00:00 9,6 3,7 8,1 13 7 22 12 SSE 1018,6 10 0,0
17.01.2020 00:00:00 9,3 4,3 7,1 13 7 18 10 S 1019,0 10 0,0
16.01.2020 23:00:00 8,8 4,8 7,1 16 9 25 14 S 1019,3 10 0,0
16.01.2020 22:00:00 9,9 5,2 8,4 22 12 29 16 S 1019,5 10 0,0
16.01.2020 21:00:00 10,0 5,8 8,7 24 13 32 18 S 1020,2 10 0,0
16.01.2020 20:00:00 9,9 5,8 8,1 18 10 29 16 SSE 1020,8 10 0,0
16.01.2020 19:00:00 9,0 5,4 7,1 9 5 22 12 SE 1021,9 10 0,0
16.01.2020 18:00:00 9,4 5,6 7,6 13 7 18 10 SE 1022,0 10 0,0
16.01.2020 17:00:00 10,4 5,6 8,8 13 7 25 14 SSE 1022,1 10 0,0
16.01.2020 16:00:00 11,8 5,5 10,9 15 8 25 14 S 1022,6 10 0,0
16.01.2020 15:00:00 11,9 5,7 11,3 24 13 32 18 S 1022,9 10 0,0
16.01.2020 14:00:00 12,0 5,6 12,0 21 11 32 18 S 1023,3 10 0,0
16.01.2020 13:00:00 11,1 6,3 11,6 21 11 36 19 S 1024,3 10 0,0
16.01.2020 12:00:00 10,2 6,5 10,5 24 13 32 18 S 1025,2 10 0,0
16.01.2020 11:00:00 9,1 6,1 8,7 18 10 29 16 S 1025,5 10 0,0
16.01.2020 10:00:00 6,6 4,5 5,3 11 6 14 8 SSE 1025,9 10 0,0
16.01.2020 09:00:00 4,7 3,2 1,6 9 5 11 6 S 1026,1 10 0,0
16.01.2020 08:00:00 4,2 3,2 1,7 11 6 11 6 S 1026,0 10 0,0
16.01.2020 07:00:00 3,9 3,1 1,2 9 5 14 8 S 1025,7 10 0,0
16.01.2020 06:00:00 4,3 3,4 2,3 13 7 14 8 S 1025,6 10 0,0
16.01.2020 05:00:00 4,5 3,6 2,3 9 5 14 8 S 1025,5 10 0,0
16.01.2020 04:00:00 5,0 4,2 2,8 9 5 14 8 S 1025,3 10 0,0
16.01.2020 03:00:00 4,7 3,5 2,4 9 5 14 8 S 1024,8 10 0,0
16.01.2020 02:00:00 3,9 3,1 2,0 13 7 14 8 SSW 1024,3 10 0,0
16.01.2020 01:00:00 4,9 4,2 3,5 13 7 14 8 SSW 1023,8 10 0,0
16.01.2020 00:00:00 5,6 4,5 4,3 9 5 18 10 SW 1023,1 10 0,0
15.01.2020 23:00:00 7,4 5,5 6,0 11 6 25 14 WSW 1021,8 10 0,0
15.01.2020 22:00:00 8,6 6,6 7,6 16 9 29 16 WSW 1020,6 10 0,0
15.01.2020 21:00:00 9,7 7,3 9,2 18 10 32 18 WSW 1019,4 10 0,0
15.01.2020 20:00:00 10,0 7,6 9,5 31 17 47 25 SW 1018,1 10 0,0
15.01.2020 19:00:00 10,2 7,7 9,7 37 20 50 27 SW 1016,6 10 0,2
15.01.2020 18:00:00 10,5 7,4 9,8 41 22 54 29 SW 1015,1 10 0,4
15.01.2020 17:00:00 11,0 6,5 10,2 35 19 50 27 SW 1013,3 10 0,1
15.01.2020 16:00:00 11,2 6,1 10,5 39 21 58 31 SW 1012,7 10 0,0
15.01.2020 15:00:00 12,4 4,9 11,9 41 22 68 37 SW 1011,8 10 0,0
15.01.2020 14:00:00 12,9 4,2 12,6 42 23 65 35 SSW 1010,3 10 0,0
15.01.2020 13:00:00 13,1 4,4 12,9 39 21 58 31 SSW 1010,6 10 0,0
15.01.2020 12:00:00 11,4 3,9 11,2 44 24 61 33 SSW 1010,8 10 0,0
15.01.2020 11:00:00 10,9 3,9 10,0 44 24 54 29 SSW 1010,7 10 0,0
15.01.2020 10:00:00 10,2 3,8 9,6 42 23 58 31 SSW 1010,6 10 0,0
15.01.2020 09:00:00 10,2 3,7 9,3 41 22 61 33 SSW 1010,5 10 0,0
15.01.2020 08:00:00 10,4 3,9 9,5 39 21 54 29 S 1010,0 10 0,0
15.01.2020 07:00:00 10,6 4,4 9,7 41 22 54 29 SSW 1010,0 10 0,0
15.01.2020 06:00:00 11,0 4,9 10,0 42 23 58 31 SSW 1009,5 10 0,0
15.01.2020 05:00:00 10,6 5,9 9,9 41 22 58 31 SSW 1010,0 10 0,0
15.01.2020 04:00:00 10,7 6,5 9,9 41 22 58 31 SSW 1009,7 10 0,0
15.01.2020 03:00:00 10,7 6,5 9,9 37 20 54 29 SSW 1009,5 10 0,0
15.01.2020 02:00:00 10,9 6,8 10,4 39 21 61 33 SSW 1009,4 10 0,0
15.01.2020 01:00:00 11,3 6,5 10,8 44 24 61 33 SSW 1009,3 10 0,0
15.01.2020 00:00:00 11,6 5,9 10,9 46 25 58 31 SSW 1009,1 10 0,0
14.01.2020 23:00:00 11,8 5,6 11,4 46 25 61 33 SSW 1008,8 10 0,0
14.01.2020 22:00:00 11,8 5,4 11,2 46 25 68 37 SSW 1008,1 10 0,0
14.01.2020 21:00:00 11,2 5,2 10,6 42 23 65 35 SSW 1008,1 10 0,0
14.01.2020 20:00:00 10,5 5,6 10,1 42 23 65 35 SSW 1008,1 10 0,0
14.01.2020 19:00:00 10,7 6,7 10,4 46 25 61 33 SSW 1007,9 10 0,0
14.01.2020 18:00:00 10,4 6,5 10,0 41 22 61 33 SW 1007,5 10 0,0
14.01.2020 17:00:00 9,9 5,7 9,6 39 21 58 31 SSW 1007,1 10 0,0
14.01.2020 16:00:00 10,2 5,1 9,8 46 25 61 33 SSW 1006,8 10 0,0
14.01.2020 15:00:00 10,3 5,3 10,0 42 23 61 33 SSW 1006,4 10 0,0
14.01.2020 14:00:00 10,6 5,5 10,4 42 23 58 31 SSW 1006,7 10 0,0
14.01.2020 13:00:00 9,9 5,6 9,6 41 22 54 29 SSW 1007,0 10 0,0
14.01.2020 12:00:00 9,7 5,5 9,1 41 22 58 31 SW 1007,3 6 0,0
14.01.2020 11:00:00 9,9 5,7 9,5 44 24 61 33 SSW 1007,1 10 0,0
14.01.2020 10:00:00 10,0 5,8 9,5 44 24 58 31 SSW 1006,6 10 0,0
14.01.2020 09:00:00 9,7 5,6 9,1 42 23 61 33 SSW 1006,1 10 0,0
14.01.2020 08:00:00 9,3 5,8 8,8 41 22 61 33 SSW 1005,7 10 0,0
14.01.2020 07:00:00 9,4 5,8 8,8 42 23 58 31 SSW 1005,2 10 0,1
14.01.2020 06:00:00 9,0 5,9 8,5 39 21 61 33 SSW 1005,0 10 0,1
14.01.2020 05:00:00 9,4 5,9 8,8 44 24 58 31 SSW 1005,3 10 0,0
14.01.2020 04:00:00 9,9 6,1 9,4 41 22 54 29 SSW 1005,4 10 0,0
14.01.2020 03:00:00 9,7 6,4 9,0 42 23 61 33 SSW 1006,1 10 0,0
14.01.2020 02:00:00 9,7 6,4 9,2 39 21 61 33 SSW 1006,5 10 0,0
14.01.2020 01:00:00 10,0 6,5 9,5 42 23 58 31 SSW 1007,0 10 0,0
14.01.2020 00:00:00 10,1 6,6 9,3 35 19 50 27 SSW 1007,8 10 0,0
13.01.2020 23:00:00 9,6 6,5 9,2 35 19 43 23 S 1008,5 10 0,0
13.01.2020 22:00:00 9,5 6,4 9,0 28 15 43 23 S 1009,5 10 0,0
13.01.2020 21:00:00 9,1 6,1 8,2 28 15 40 21 S 1010,6 10 0,0
13.01.2020 20:00:00 8,5 5,9 7,9 28 15 40 21 S 1011,0 10 0,0
13.01.2020 19:00:00 8,3 5,2 7,7 24 13 36 19 S 1011,8 10 0,0
13.01.2020 18:00:00 8,0 4,7 7,4 21 11 32 18 S 1012,7 10 0,0
13.01.2020 17:00:00 7,8 4,2 7,4 18 10 29 16 S 1013,6 10 0,0
13.01.2020 16:00:00 8,0 4,0 7,4 22 12 32 18 SSW 1014,9 10 0,0
13.01.2020 15:00:00 8,4 3,8 8,1 26 14 40 21 SSW 1015,6 10 0,0
13.01.2020 14:00:00 8,9 4,1 9,1 24 13 36 19 SSW 1016,1 10 0,0
13.01.2020 13:00:00 8,1 6,0 7,7 18 10 25 14 S 1017,5 10 0,0
13.01.2020 12:00:00 7,0 5,5 6,7 18 10 22 12 SSW 1019,2 10 0,0
13.01.2020 11:00:00 6,7 5,1 6,4 16 9 22 12 SSW 1019,8 10 0,0
13.01.2020 10:00:00 5,7 4,5 5,1 15 8 18 10 S 1019,9 10 0,0
13.01.2020 09:00:00 4,9 4,0 3,9 13 7 18 10 SSW 1020,2 10 0,0
13.01.2020 08:00:00 4,4 3,8 3,5 15 8 14 8 S 1020,6 10 0,0
13.01.2020 07:00:00 4,8 4,2 4,2 15 8 22 12 SSW 1021,0 10 0,0
13.01.2020 06:00:00 5,3 4,5 5,0 18 10 25 14 SSW 1021,2 10 0,0
13.01.2020 05:00:00 5,6 4,6 5,1 18 10 22 12 SSW 1021,8 10 0,0
13.01.2020 04:00:00 6,4 4,6 5,9 22 12 29 16 SSW 1022,4 10 0,0
13.01.2020 03:00:00 6,9 5,1 6,4 21 11 29 16 SW 1022,8 10 0,0
13.01.2020 02:00:00 7,0 5,2 6,4 24 13 32 18 SW 1023,1 10 0,0
13.01.2020 01:00:00 7,2 5,2 6,6 21 11 29 16 SW 1023,3 10 0,0
13.01.2020 00:00:00 7,5 5,5 7,2 21 11 29 16 SW 1023,5 10 0,0
12.01.2020 23:00:00 7,5 5,6 7,1 22 12 29 16 SW 1023,4 10 0,0
12.01.2020 22:00:00 7,3 5,6 6,7 26 14 32 18 SW 1023,2 10 0,0
12.01.2020 21:00:00 7,9 5,7 7,3 26 14 32 18 SW 1023,0 10 0,0
12.01.2020 20:00:00 7,8 5,7 7,4 28 15 36 19 SW 1022,7 10 0,0
12.01.2020 19:00:00 7,7 5,6 7,1 26 14 40 21 SW 1022,5 10 0,0
12.01.2020 18:00:00 7,5 5,5 6,8 31 17 40 21 SSW 1022,2 10 0,0
12.01.2020 17:00:00 7,4 5,5 6,9 28 15 43 23 SW 1021,7 10 0,0
12.01.2020 16:00:00 7,5 5,7 7,1 35 19 43 23 SW 1021,0 10 0,0
12.01.2020 15:00:00 6,6 5,5 6,2 31 17 50 27 SW 1020,8 10 0,0
12.01.2020 14:00:00 6,3 5,5 6,1 35 19 50 27 SW 1021,1 10 0,3

tt = temperature
td = dewpoint
tt 5cm = temperature 5cm
ff = wind speed
fx = gusts
dd = wind direction
ppp = reduced air pressure
vv = visibility
rr = precipitation

Next stations